When you browse on this site, cookies collect data to enhance your experience and personalize the content and advertising you see.
Visit our Privacy Policy to learn more. By continuing to use the site, you agree to this use of cookies and data.
  • En España
  • Lista de países
  • Para 7 días
  • Temperatura del agua
  • El tiempo en el mapa
  • Informadores
  • user-avatar
    Iniciar sesión

    Tiempo cada hora Ibb

    Hoy, 19 Noviembre, Martes

    Tiempo Temperatura Precipitaciones Viento Presión Humedad
    00:00 +18°C° 0 mm 1 mps 596 mmHg 65%
    01:00 +16°C° 0 mm 1 mps 595 mmHg 65%
    02:00 +16°C° 0 mm 1 mps 595 mmHg 65%
    03:00 +16°C° 0 mm 1 mps 595 mmHg 65%
    04:00 +16°C° 0 mm 1 mps 595 mmHg 65%
    05:00 +15°C° 0 mm 1 mps 595 mmHg 65%
    06:00 +14°C° 0 mm 0 mps 595 mmHg 65%
    07:00 +18°C° 0 mm 1 mps 596 mmHg 58%
    08:00 +20°C° 0 mm 1 mps 597 mmHg 50%
    09:00 +21°C° 0 mm 1 mps 598 mmHg 42%
    10:00 +21°C° 0 mm 2 mps 598 mmHg 42%
    11:00 +23°C° 0 mm 2 mps 597 mmHg 41%
    12:00 +24°C° 0 mm 3 mps 597 mmHg 40%
    13:00 +22°C° 0 mm 3 mps 597 mmHg 42%
    14:00 +22°C° 0 mm 3 mps 596 mmHg 44%
    15:00 +22°C° 0 mm 3 mps 595 mmHg 46%
    16:00 +21°C° 0 mm 3 mps 595 mmHg 50%
    17:00 +20°C° 0 mm 2 mps 595 mmHg 53%
    18:00 +20°C° 0 mm 2 mps 595 mmHg 57%
    19:00 +20°C° 0 mm 1 mps 595 mmHg 65%
    20:00 +19°C° 0 mm 1 mps 595 mmHg 72%
    21:00 +18°C° 0 mm 1 mps 596 mmHg 79%
    22:00 +18°C° 0.1 mm 1 mps 595 mmHg 80%
    23:00 +18°C° 0.1 mm 1 mps 595 mmHg 81%

    Mañana, 20 Noviembre, Miércoles

    Tiempo Temperatura Precipitaciones Viento Presión Humedad
    00:00 +17°C° 0.1 mm 2 mps 595 mmHg 82%
    01:00 +16°C° 0.1 mm 1 mps 595 mmHg 82%
    02:00 +16°C° 0.1 mm 1 mps 594 mmHg 82%
    03:00 +16°C° 0.1 mm 1 mps 594 mmHg 81%
    04:00 +16°C° 0.1 mm 1 mps 594 mmHg 82%
    05:00 +14°C° 0.1 mm 0 mps 594 mmHg 82%
    06:00 +14°C° 0.1 mm 0 mps 594 mmHg 82%
    07:00 +16°C° 0 mm 0 mps 595 mmHg 74%
    08:00 +19°C° 0 mm 1 mps 596 mmHg 65%
    09:00 +21°C° 0 mm 1 mps 596 mmHg 56%
    10:00 +20°C° 0 mm 2 mps 596 mmHg 52%
    11:00 +21°C° 0 mm 2 mps 596 mmHg 48%
    12:00 +22°C° 0 mm 3 mps 596 mmHg 44%
    13:00 +22°C° 0.2 mm 3 mps 596 mmHg 47%
    14:00 +22°C° 0.2 mm 3 mps 595 mmHg 50%
    15:00 +21°C° 0.2 mm 3 mps 595 mmHg 53%
    16:00 +21°C° 0.1 mm 3 mps 594 mmHg 59%
    17:00 +20°C° 0.1 mm 2 mps 594 mmHg 65%
    18:00 +19°C° 0.1 mm 2 mps 594 mmHg 72%
    19:00 +19°C° 0.2 mm 1 mps 594 mmHg 75%
    20:00 +19°C° 0.2 mm 1 mps 594 mmHg 79%
    21:00 +17°C° 0.2 mm 0 mps 594 mmHg 82%
    22:00 +16°C° 0.5 mm 0 mps 594 mmHg 81%
    23:00 +16°C° 0.5 mm 0 mps 594 mmHg 79%

    Pasado mañana, 21 Noviembre, Jueves

    Tiempo Temperatura Precipitaciones Viento Presión Humedad
    00:00 +16°C° 0.5 mm 0 mps 594 mmHg 78%
    01:00 +16°C° 0.3 mm 0 mps 594 mmHg 78%
    02:00 +18°C° 0.3 mm 1 mps 594 mmHg 78%
    03:00 +18°C° 0.3 mm 1 mps 594 mmHg 78%
    04:00 +18°C° 0.3 mm 1 mps 594 mmHg 79%
    05:00 +16°C° 0.3 mm 1 mps 594 mmHg 80%
    06:00 +16°C° 0.3 mm 1 mps 594 mmHg 81%
    07:00 +18°C° 0.1 mm 1 mps 595 mmHg 74%
    08:00 +19°C° 0.1 mm 1 mps 596 mmHg 68%
    09:00 +19°C° 0.1 mm 2 mps 597 mmHg 61%
    10:00 +20°C° 0.1 mm 2 mps 597 mmHg 56%
    11:00 +21°C° 0.1 mm 3 mps 597 mmHg 52%
    12:00 +22°C° 0.1 mm 3 mps 597 mmHg 47%
    13:00 +21°C° 0.3 mm 4 mps 596 mmHg 49%
    14:00 +21°C° 0.3 mm 4 mps 595 mmHg 52%
    15:00 +21°C° 0.3 mm 4 mps 595 mmHg 54%
    16:00 +20°C° 0.5 mm 3 mps 595 mmHg 60%
    17:00 +19°C° 0.5 mm 3 mps 595 mmHg 65%
    18:00 +18°C° 0.5 mm 2 mps 595 mmHg 70%
    19:00 +18°C° 0.4 mm 2 mps 595 mmHg 71%
    20:00 +18°C° 0.4 mm 2 mps 595 mmHg 72%
    21:00 +17°C° 0.4 mm 2 mps 596 mmHg 72%
    22:00 +17°C° 0 mm 2 mps 595 mmHg 73%
    23:00 +17°C° 0 mm 2 mps 595 mmHg 74%

    22 Noviembre, Viernes

    Tiempo Temperatura Precipitaciones Viento Presión Humedad
    00:00 +16°C° 0 mm 2 mps 595 mmHg 74%
    01:00 +16°C° 0 mm 2 mps 595 mmHg 74%
    02:00 +16°C° 0 mm 2 mps 594 mmHg 74%
    03:00 +15°C° 0 mm 2 mps 594 mmHg 73%
    04:00 +15°C° 0 mm 2 mps 594 mmHg 73%
    05:00 +15°C° 0 mm 2 mps 594 mmHg 73%
    06:00 +14°C° 0 mm 2 mps 594 mmHg 73%
    07:00 +16°C° 0 mm 2 mps 595 mmHg 65%
    08:00 +17°C° 0 mm 2 mps 596 mmHg 56%
    09:00 +19°C° 0 mm 2 mps 597 mmHg 48%
    10:00 +20°C° 0 mm 2 mps 597 mmHg 46%
    11:00 +20°C° 0 mm 3 mps 597 mmHg 44%
    12:00 +21°C° 0 mm 4 mps 597 mmHg 42%
    13:00 +21°C° 0 mm 4 mps 597 mmHg 43%
    14:00 +21°C° 0 mm 4 mps 596 mmHg 44%
    15:00 +22°C° 0 mm 4 mps 596 mmHg 45%
    16:00 +20°C° 0.1 mm 4 mps 596 mmHg 51%
    17:00 +19°C° 0.1 mm 3 mps 595 mmHg 57%
    18:00 +18°C° 0.1 mm 3 mps 595 mmHg 63%
    19:00 +18°C° 0.1 mm 3 mps 595 mmHg 67%
    20:00 +17°C° 0.1 mm 2 mps 596 mmHg 71%
    21:00 +16°C° 0.1 mm 2 mps 596 mmHg 75%
    22:00 +16°C° 0 mm 2 mps 596 mmHg 76%
    23:00 +16°C° 0 mm 2 mps 595 mmHg 76%

    23 Noviembre, Sábado

    Tiempo Temperatura Precipitaciones Viento Presión Humedad
    00:00 +16°C° 0 mm 2 mps 595 mmHg 76%
    01:00 +16°C° 0 mm 2 mps 595 mmHg 77%
    02:00 +15°C° 0 mm 2 mps 595 mmHg 77%
    03:00 +15°C° 0 mm 1 mps 594 mmHg 77%
    04:00 +15°C° 0 mm 1 mps 594 mmHg 77%
    05:00 +15°C° 0 mm 1 mps 595 mmHg 76%
    06:00 +14°C° 0 mm 1 mps 595 mmHg 75%
    07:00 +16°C° 0 mm 1 mps 596 mmHg 67%
    08:00 +18°C° 0 mm 1 mps 597 mmHg 59%
    09:00 +20°C° 0 mm 1 mps 598 mmHg 52%
    10:00 +20°C° 0 mm 2 mps 598 mmHg 49%
    11:00 +21°C° 0 mm 2 mps 597 mmHg 47%
    12:00 +22°C° 0 mm 3 mps 597 mmHg 45%
    13:00 +21°C° 0.1 mm 3 mps 597 mmHg 47%
    14:00 +21°C° 0.1 mm 3 mps 596 mmHg 50%
    15:00 +21°C° 0.1 mm 3 mps 596 mmHg 52%
    16:00 +20°C° 0.1 mm 3 mps 596 mmHg 59%
    17:00 +19°C° 0.1 mm 3 mps 595 mmHg 65%
    18:00 +18°C° 0.1 mm 2 mps 595 mmHg 71%
    19:00 +18°C° 0.2 mm 2 mps 595 mmHg 75%
    20:00 +17°C° 0.2 mm 2 mps 596 mmHg 78%
    21:00 +17°C° 0.2 mm 2 mps 596 mmHg 82%
    22:00 +17°C° 0.1 mm 2 mps 596 mmHg 81%
    23:00 +16°C° 0.1 mm 2 mps 595 mmHg 81%

    24 Noviembre, Domingo

    Tiempo Temperatura Precipitaciones Viento Presión Humedad
    00:00 +16°C° 0.1 mm 2 mps 595 mmHg 81%
    01:00 +16°C° 0 mm 1 mps 595 mmHg 81%
    02:00 +16°C° 0 mm 1 mps 595 mmHg 81%
    03:00 +15°C° 0 mm 1 mps 594 mmHg 81%
    04:00 +15°C° 0 mm 1 mps 594 mmHg 81%
    05:00 +15°C° 0 mm 1 mps 595 mmHg 80%
    06:00 +15°C° 0 mm 1 mps 595 mmHg 80%
    07:00 +16°C° 0 mm 1 mps 596 mmHg 72%
    08:00 +18°C° 0 mm 1 mps 596 mmHg 63%
    09:00 +19°C° 0 mm 1 mps 597 mmHg 55%
    10:00 +19°C° 0 mm 2 mps 597 mmHg 51%
    11:00 +21°C° 0 mm 2 mps 597 mmHg 48%
    12:00 +22°C° 0 mm 3 mps 597 mmHg 44%
    13:00 +21°C° 0.1 mm 3 mps 597 mmHg 47%
    14:00 +21°C° 0.1 mm 3 mps 596 mmHg 50%
    15:00 +21°C° 0.1 mm 3 mps 596 mmHg 53%
    16:00 +20°C° 0.2 mm 3 mps 596 mmHg 59%
    17:00 +19°C° 0.2 mm 2 mps 595 mmHg 66%
    18:00 +18°C° 0.2 mm 2 mps 595 mmHg 72%
    19:00 +17°C° 0.1 mm 2 mps 595 mmHg 76%
    20:00 +18°C° 0.1 mm 1 mps 595 mmHg 79%
    21:00 +16°C° 0.1 mm 1 mps 596 mmHg 83%
    22:00 +16°C° 0.1 mm 1 mps 595 mmHg 82%
    23:00 +16°C° 0.1 mm 1 mps 595 mmHg 82%
    Mostrar más